FENGYUN 1C DEB, 35155

Orbit data source: Space-Track

FENGYUN 1C DEB, 35155 is space debris in SSO originally from a launch on Mon, 10 May 1999 UTC launched from the Taiyaun Space Center, China (TSC). Fengyun 1C debris stems from the Chinese weather satellite Fengyun-1C, which was intentionally destroyed by a Chinese anti-satellite missile in 2007. This event dramatically increased the amount of space debris, with thousands of trackable fragments posing hazards to satellites and human spaceflight. The Fengyun 1C debris cloud has become a focal point in discussions about space sustainability and the need for international regulations to prevent the creation of new debris.

Loading next visibility...
Identifier
35155, 1999-025DMK
Orbit
SSO
Country
Flag of CNCN / PRC
Related business
Manufacturer
Unknown
Mission
Spacecraft
Bus & Motor
Unknown
Mass
Unknown
Launch date (UTC)
1999-05-10 (27 years ago)
Launch vehicle
Unknown
Launch site
Taiyaun Space Center, China (TSC)
Object type
Payload
Rocket body
Debris
Shape & HBR
Unknown shape, 0.1 m
Radar Cross Section
Small (<0.1 m²)

Expand to show TLE details & history
Last TLE update: 1 day ago

TLE from 1 day ago
0 FENGYUN 1C DEB
1 35155U 99025DMK 26175.81966836  .00000813  00000-0  40259-3 0  9997
2 35155  98.4937 184.6885 0023822 227.1386 132.7790 14.19774183754670
Epoch: 2026-06-24T19:40Z
TLE epoch observation values (Epoch: 2026-06-24T19:40:19.346Z)
Latitude
-0.00005°
Longitude
-23.36351°
Altitude
840.718 km
Speed
7.426 km/s
True Right ascension
12h 18m 45s
True Declination
0° 00' 00"
Sunlit
Object was in daylight at epoch
Visualization orbit readout
Latitude
Unknown
Longitude
Unknown
Altitude
Unknown
Speed
Unknown
Apparent Right ascension
Unknown
Apparent Declination
Unknown
Sunlit
N/A
Visualization observer readout
Local Sidereal Time
07:59:51
Azimuth
Unknown
Elevation
Unknown
Doppler factor
Unknown
Orbital elements
Apogee altitude
840.42 km
Perigee altitude
806.11 km
Semi-major axis
7,201.402 km
Eccentricity
0.00238
Inclination
98.4937°
RAAN
184.6885°
Arg. of periapsis
227.1386°
True anomaly
132.97896°
Mean anomaly
132.779°
Eccentric anomaly
132.87902°
Mean motion
3.55155 °/min
Orbital period
101.36 mins
BSTAR
0.00040259
Loading maneuver chart data...
Computing Atmospheric mass density...

Documentation

Showing up to 5 results
|